Weather History for Rolla, MO

Change the Weather History Date:

Thursday, May 23, 2013

  Actual Average Record
Temperature  
Mean Temperature 59 °F 66 °F  
Max Temperature 67 °F 76 °F 90 °F (1996)
Min Temperature 51 °F 55 °F 42 °F (1963)
Degree Days  
Heating Degree Days 6 3  
Month to date heating degree days 138 101  
Since 1 July heating degree days 4928 4819  
Cooling Degree Days 0 3  
Month to date cooling degree days 49 49  
Year to date cooling degree days 62 75  
Growing Degree Days 9 (Base 50)    
Moisture  
Dew Point 53 °F    
Average Humidity 84    
Maximum Humidity 100    
Minimum Humidity 67    
Precipitation  
Precipitation 0.00 in 0.16 in 1.76 in (1971)
Month to date precipitation 3.38 3.74  
Year to date precipitation 17.55 15.51  
Sea Level Pressure  
Sea Level Pressure 30.07 in    
Wind  
Wind Speed 9 mph (NW)    
Max Wind Speed 18 mph    
Max Gust Speed 25 mph    
Visibility 10 miles    
Events      
T = Trace of Precipitation, MM = Missing Value Source: NWS Daily Summary

Daily Weather History Graph

Daily Weather History Graph

Search for Another Location

Airport:

Trip Planner

Search our weather history database for the weather conditions in past years. The results will help you decide how hot, cold, wet, or windy it might be!

Date:

Astronomy

May. 23, 2013 Rise Set
Actual Time 5:50 AM CDT 8:17 PM CDT
Civil Twilight 5:19 AM CDT 8:48 PM CDT
Nautical Twilight 4:42 AM CDT 9:25 PM CDT
Astronomical Twilight 4:01 AM CDT 10:07 PM CDT
Moon 6:51 PM CDT (5/23) 4:33 AM CDT (5/23)
Length of Visible Light 15h 28m
Length of Day
14h 27m
Waxing Gibbous, 97% of the Moon is Illuminated
May 23
Waxing Gibbous
May 24
Full
May 31
Last Quarter
Jun 8
New
Jun 16
First Quarter

Hourly Weather History & Observations

Time (CDT) Temp. Dew Point Humidity Pressure Visibility Wind Dir Wind Speed Gust Speed Precip Events Conditions
12:53 AM 57.0 °F 53.1 °F 87% 29.90 in 10.0 mi SW 6.9 mph - N/A   Overcast
1:53 AM 55.9 °F 53.1 °F 90% 29.89 in 10.0 mi WSW 4.6 mph - N/A   Overcast
2:53 AM 57.9 °F 52.0 °F 81% 29.90 in 10.0 mi WNW 6.9 mph - N/A   Overcast
3:53 AM 55.9 °F 52.0 °F 87% 29.91 in 10.0 mi WNW 5.8 mph - N/A   Scattered Clouds
4:53 AM 54.0 °F 51.1 °F 90% 29.93 in 10.0 mi West 6.9 mph - N/A   Clear
5:53 AM 55.0 °F 51.1 °F 86% 29.95 in 10.0 mi West 8.1 mph - N/A   Mostly Cloudy
6:53 AM 55.9 °F 51.1 °F 84% 29.98 in 10.0 mi WNW 6.9 mph - N/A   Clear
7:39 AM 57.2 °F 51.8 °F 82% 30.01 in 10.0 mi WNW 10.4 mph - N/A   Mostly Cloudy
7:53 AM 57.9 °F 51.1 °F 78% 30.00 in 10.0 mi WNW 11.5 mph - N/A   Mostly Cloudy
8:53 AM 59.0 °F 48.9 °F 69% 30.02 in 10.0 mi NW 17.3 mph 25.3 mph N/A   Mostly Cloudy
9:53 AM 59.0 °F 50.0 °F 72% 30.01 in 10.0 mi NNW 15.0 mph - N/A   Overcast
10:53 AM 62.1 °F 52.0 °F 70% 30.06 in 10.0 mi WNW 12.7 mph - N/A   Overcast
11:53 AM 61.0 °F 52.0 °F 72% 30.10 in 10.0 mi West 12.7 mph - N/A   Overcast
12:53 PM 60.1 °F 52.0 °F 75% 30.11 in 10.0 mi West 11.5 mph - N/A   Overcast
1:53 PM 61.0 °F 52.0 °F 72% 30.11 in 10.0 mi NW 9.2 mph - N/A   Overcast
2:11 PM 62.6 °F 53.6 °F 72% 30.12 in 10.0 mi WNW 8.1 mph - N/A   Overcast
2:22 PM 62.6 °F 53.6 °F 72% 30.13 in 10.0 mi WNW 9.2 mph - N/A   Overcast
2:53 PM 62.1 °F 53.1 °F 72% 30.12 in 10.0 mi NW 10.4 mph - N/A   Overcast
3:08 PM 64.4 °F 53.6 °F 68% 30.13 in 10.0 mi NW 9.2 mph - N/A   Overcast
3:42 PM 62.6 °F 53.6 °F 72% 30.13 in 10.0 mi NW 9.2 mph - N/A   Overcast
3:50 PM 62.6 °F 53.6 °F 72% 30.13 in 10.0 mi NNW 8.1 mph - N/A   Overcast
3:53 PM 64.0 °F 55.0 °F 73% 30.12 in 10.0 mi NNW 11.5 mph - N/A   Overcast
4:53 PM 66.9 °F 55.9 °F 68% 30.12 in 10.0 mi North 12.7 mph 17.3 mph N/A   Scattered Clouds
5:53 PM 66.0 °F 55.0 °F 68% 30.13 in 10.0 mi NNW 13.8 mph 17.3 mph N/A   Scattered Clouds
6:53 PM 63.0 °F 55.0 °F 75% 30.13 in 10.0 mi North 10.4 mph - N/A   Clear
7:53 PM 61.0 °F 54.0 °F 78% 30.14 in 10.0 mi NNE 8.1 mph - N/A   Mostly Cloudy
8:20 PM 59.0 °F 53.6 °F 82% 30.15 in 10.0 mi North 6.9 mph - N/A   Scattered Clouds
8:53 PM 57.0 °F 53.1 °F 87% 30.15 in 10.0 mi NE 4.6 mph - N/A   Clear
9:53 PM 52.0 °F 52.0 °F 100% 30.18 in 10.0 mi Calm Calm - N/A   Clear
10:53 PM 52.0 °F 51.1 °F 97% 30.19 in 10.0 mi NE 5.8 mph - N/A   Clear
11:53 PM 51.1 °F 50.0 °F 96% 30.21 in 10.0 mi NE 3.5 mph - N/A   Clear